Tracking 22779 objects as of 13-Apr-2021
HD Live streaming from Space Station
objects crossing your sky now

MARECS B2

Track MARECS B2 now!
MARECS B2 is classified as:


NORAD ID: 15386
Int'l Code: 1984-114B
Perigee: 36,539.9 km
Apogee: 37,573.7 km
Inclination: 15.7 °
Period: 1,501.1 minutes
Semi major axis: 43427 km
RCS: 3.0552 m2 (large)
Launch date: November 10, 1984
Source: European Space Agency (ESA)
Launch site: FRENCH GUIANA (FRGUI)
aabbcc
Your satellite tracking list
Your tracking list is empty




NASA's NSSDC Master Catalog

Two Line Element Set (TLE):
1 15386U 84114B   21102.10929764 -.00000241  00000-0  00000-0 0  9993
2 15386  15.6765 346.7391 0119022   9.7970 247.2418  0.95929254 94528
Source of the keplerian elements: AFSPC